Wind_Speed
49 51 51 53 52 50 49 47 45 44 45 46 47 47 46 44 44 44 45 45 44 43 42 40 40 40 41 41 41 41 42 43 43 42 40 40 42 43 44 45 45 46 48
48 51 53 53 52 51 50 48 45 44 44 45 46 47 45 44 44 43 43 43 42 40 39 39 39 38 39 39 39 39 40 41 42 41 40 39 39 40 41 41 41 41 41
45 48 52 53 53 53 50 45 44 44 45 46 46 45 44 43 43 42 41 40 39 39 39 39 38 38 38 38 38 38 38 39 41 42 40 38 38 39 39 38 38 38 38
39 41 46 51 52 49 43 42 44 44 43 42 42 43 42 40 39 38 39 39 39 39 40 40 40 39 39 38 38 38 38 39 40 41 40 38 37 38 39 38 37 37 36
31 33 37 42 45 42 41 42 42 39 36 36 39 41 40 38 37 37 38 39 40 40 40 41 41 40 40 40 39 40 40 40 41 42 41 40 38 38 39 38 38 36 36
24 25 28 33 38 40 41 39 35 32 32 36 39 39 38 37 35 36 37 38 38 38 40 41 42 42 42 42 41 41 41 42 43 43 43 42 40 40 39 38 37 35 34
21 19 20 24 28 31 32 31 28 29 32 34 34 33 33 34 34 34 35 36 36 37 39 40 42 44 44 44 44 43 43 44 45 45 45 44 43 42 41 39 37 35 33
21 18 17 18 21 23 23 24 25 27 29 29 28 28 29 30 32 32 33 35 36 38 39 41 43 44 45 45 44 44 45 45 46 47 47 47 47 45 44 41 38 36 33
22 20 18 19 20 21 22 24 25 27 27 26 26 25 25 27 29 31 33 36 38 39 40 41 42 43 44 44 45 46 47 47 47 48 49 49 49 49 47 44 41 37 34
21 21 21 22 22 23 24 25 26 27 27 26 25 24 24 25 27 30 34 38 40 42 43 43 44 44 45 45 46 47 47 48 49 49 50 50 51 51 50 47 44 40 36
22 23 24 25 25 25 26 27 28 29 29 28 27 26 26 26 27 30 33 37 41 44 45 46 46 46 47 47 47 48 49 50 50 51 51 51 52 52 52 51 47 43 38
23 25 27 28 29 29 30 30 31 32 32 32 32 31 30 30 31 32 34 38 42 44 46 47 48 48 48 48 49 49 50 50 51 51 52 52 52 53 53 53 51 46 42
28 29 30 32 33 33 34 34 35 35 36 37 37 37 37 37 37 37 38 40 42 44 46 48 49 49 49 49 49 49 50 50 51 51 52 52 53 53 53 53 52 49 45
30 31 32 33 35 37 38 38 39 39 40 41 42 42 42 42 42 42 43 43 44 44 45 46 47 48 49 49 49 50 50 51 51 52 52 52 53 53 53 53 53 51 48
29 30 31 32 34 36 39 42 43 44 45 46 47 48 48 48 48 48 47 47 46 46 46 46 47 48 49 50 50 51 51 52 52 53 53 53 53 53 53 53 53 53 51
31 31 31 32 34 36 39 42 45 47 49 51 52 52 53 53 53 53 52 50 49 49 49 49 50 50 51 51 52 53 54 54 54 54 54 54 54 54 54 54 55 55 54
31 32 33 33 35 37 39 42 45 48 50 52 54 55 55 55 55 55 55 53 53 53 53 53 54 54 54 55 55 55 56 56 56 56 56 56 56 56 56 56 56 57 57
32 32 33 34 36 38 40 43 45 48 51 53 55 56 57 57 57 58 58 57 58 58 58 58 59 59 59 59 59 59 59 59 59 59 59 59 58 58 58 58 59 60 60
37 37 38 39 41 42 44 46 48 51 53 55 57 59 60 61 62 63 63 63 63 64 64 64 64 64 64 64 64 63 63 63 63 63 62 62 62 61 61 61 62 63 64
43 44 45 47 48 49 51 53 55 57 59 61 63 65 66 67 68 69 70 71 71 71 71 71 71 71 70 70 69 68 68 68 68 68 67 67 67 67 67 67 67 68 68
51 53 55 56 58 59 61 63 64 66 68 69 71 72 74 75 76 76 77 78 78 79 79 79 78 78 78 77 76 76 75 75 75 74 73 73 73 72 72 71 71 71 71
60 61 63 64 66 67 68 70 71 72 73 75 76 77 78 79 80 80 81 81 82 82 82 83 83 83 83 83 82 81 80 79 79 78 77 76 75 73 72 71 70 69 69
65 65 65 65 65 65 66 66 66 66 67 67 68 68 69 70 71 72 73 74 75 76 76 77 77 78 78 78 78 76 75 73 72 70 68 66 65 63 61 59 58 57 57
60 58 57 55 54 53 52 51 50 50 50 50 50 50 51 52 53 54 56 58 59 61 63 64 65 66 66 66 66 64 61 59 56 54 52 50 48 46 44 43 42 41 39
48 45 43 41 40 38 37 36 35 34 34 34 34 34 34 35 35 36 37 38 40 41 43 45 46 48 49 50 49 48 45 42 40 37 35 33 32 30 28 27 25 24 23
38 37 35 34 33 32 31 31 30 30 30 29 29 28 27 27 26 26 25 26 26 26 27 27 29 30 31 31 32 32 32 31 30 28 25 23 21 20 19 18 17 17 16
Wind_Direction
262 257 253 254 256 258 262 265 268 270 272 273 272 271 271 270 269 264 256 246 240 238 238 241 246 251 254 256 257 259 259 259 257 256 258 261 266 270 273 275 277 278 279
265 256 252 251 254 257 259 263 266 269 270 272 272 271 271 270 268 263 255 245 239 237 238 241 246 252 255 257 259 261 261 260 258 257 258 262 267 271 275 279 281 284 287
271 260 252 250 250 253 256 259 263 268 271 272 271 271 270 270 267 260 252 243 238 237 238 242 247 252 256 259 262 263 263 262 259 258 259 262 267 271 274 278 282 286 291
277 265 255 250 250 252 254 259 263 267 268 266 266 267 268 266 263 257 250 243 240 239 240 244 249 254 258 261 263 264 264 262 261 260 260 262 265 269 272 275 279 283 289
280 268 257 250 251 252 255 258 262 262 258 256 258 262 263 262 260 256 251 246 243 242 243 247 251 256 259 261 264 265 264 263 262 262 261 261 263 266 270 273 276 281 285
281 267 254 248 249 253 254 256 255 250 249 252 258 261 261 258 256 255 252 249 247 247 248 251 254 257 260 262 264 266 266 264 263 262 261 261 262 264 267 271 275 279 283
282 268 252 244 245 248 250 249 246 247 252 256 259 260 258 256 253 252 253 254 253 253 253 255 257 259 260 261 263 264 265 265 264 262 261 260 261 262 265 268 272 276 279
283 272 257 247 244 244 246 248 249 251 252 252 255 257 256 255 253 252 254 258 259 259 258 258 259 260 260 261 262 263 263 264 264 263 261 260 259 260 263 265 268 272 277
285 275 262 252 247 248 251 254 253 252 251 253 256 259 260 260 260 259 258 260 262 263 263 262 261 261 260 261 261 262 263 263 264 263 261 260 259 258 260 262 264 268 273
286 276 266 260 256 256 257 257 255 253 254 255 258 261 265 267 269 269 268 266 265 264 263 263 263 263 262 262 262 262 262 263 263 263 262 260 258 257 258 259 261 264 267
287 280 271 264 262 261 261 260 258 256 255 256 259 261 265 269 273 275 274 273 270 266 264 264 264 264 264 263 262 262 261 261 261 261 261 260 259 257 257 258 259 260 262
286 281 275 269 264 262 262 262 261 259 257 258 260 263 266 270 274 278 279 276 273 270 267 265 264 264 263 261 261 260 260 259 259 259 260 260 259 258 257 257 258 259 261
285 281 277 273 267 263 262 262 261 260 259 260 263 265 268 271 274 277 279 280 278 274 270 267 265 263 262 260 259 259 258 258 258 258 258 259 258 258 257 258 258 259 261
288 284 279 274 269 265 263 262 262 262 262 264 266 268 270 272 274 276 277 279 278 274 271 268 265 263 261 260 260 259 259 259 259 259 258 258 257 257 257 257 258 259 261
295 290 284 278 273 268 265 263 263 264 265 267 269 271 272 274 275 275 275 275 273 271 269 267 265 263 261 260 260 260 260 259 259 259 259 258 258 258 258 257 257 258 260
294 291 288 283 277 273 269 268 266 267 268 269 271 272 274 275 275 274 274 273 270 268 268 267 266 264 263 262 261 260 260 259 259 259 259 259 258 258 258 259 259 259 259
299 294 289 285 281 277 274 273 272 271 271 271 272 273 274 274 274 273 273 271 269 268 267 266 266 265 264 264 264 263 263 262 261 260 259 259 259 258 258 259 259 260 260
304 300 295 291 286 282 279 277 275 274 274 273 273 272 272 272 272 271 271 270 269 268 268 267 266 265 265 264 264 264 264 264 264 263 262 262 261 261 261 261 261 262 262
305 301 298 294 291 288 285 282 280 278 277 276 275 275 274 273 272 272 271 270 269 268 267 266 266 265 264 264 264 264 264 264 264 264 264 264 263 263 264 264 264 264 264
305 302 299 296 293 290 287 284 282 280 279 278 277 276 275 274 274 273 272 271 270 269 269 268 267 266 265 265 264 264 264 264 264 264 265 265 265 265 266 266 266 266 267
304 302 299 297 294 291 289 287 285 283 281 279 278 277 276 275 274 273 272 271 270 270 269 268 267 267 266 266 265 265 265 265 265 265 266 266 267 267 268 268 268 269 269
304 301 299 297 295 293 290 288 286 285 283 281 280 279 278 277 276 275 274 273 272 271 270 269 268 268 267 266 266 266 266 266 266 266 267 268 268 269 270 270 271 271 271
306 304 303 301 299 297 295 293 291 289 287 286 284 283 281 280 279 278 276 275 274 273 271 270 269 268 267 267 266 266 266 266 266 267 267 268 268 269 269 269 269 269 268
312 310 309 308 306 305 303 302 300 298 296 294 292 290 288 286 283 281 279 277 275 274 272 270 269 267 266 265 264 263 263 263 262 262 262 262 262 262 261 260 260 259 258
324 324 324 324 324 323 322 321 320 319 316 314 310 306 303 300 296 293 290 286 283 279 275 272 269 267 265 263 261 259 256 253 251 250 248 247 247 245 244 242 240 237 235
346 347 348 348 349 350 350 350 350 348 345 340 335 329 323 319 314 310 306 302 298 292 286 279 273 267 262 258 252 247 241 235 230 229 227 226 221 215 209 203 200 199 198
Height
5531 5532 5535 5537 5539 5540 5541 5542 5544 5544 5544 5544 5544 5545 5545 5546 5546 5546 5547 5548 5551 5555 5560 5565 5569 5572 5575 5576 5577 5578 5579 5580 5582 5584 5586 5586 5586 5586 5587 5587 5586 5585 5582
5513 5515 5517 5520 5522 5525 5527 5529 5530 5531 5531 5531 5530 5531 5531 5532 5533 5533 5534 5536 5539 5543 5548 5552 5556 5559 5561 5563 5564 5565 5566 5567 5569 5572 5573 5574 5574 5573 5573 5572 5571 5568 5565
5496 5497 5500 5503 5506 5510 5513 5515 5517 5517 5517 5517 5517 5518 5519 5520 5520 5521 5523 5525 5528 5532 5536 5540 5544 5546 5549 5550 5552 5553 5554 5556 5557 5559 5561 5562 5561 5561 5560 5559 5558 5555 5551
5481 5481 5483 5487 5491 5495 5499 5501 5503 5504 5504 5505 5506 5506 5507 5507 5508 5509 5512 5514 5517 5521 5525 5528 5531 5534 5536 5538 5540 5541 5542 5544 5545 5547 5548 5549 5549 5548 5548 5547 5546 5543 5540
5470 5469 5470 5473 5478 5482 5486 5488 5490 5491 5493 5494 5495 5495 5495 5496 5497 5499 5501 5503 5506 5509 5513 5516 5519 5522 5524 5526 5527 5529 5530 5531 5533 5535 5536 5537 5537 5537 5536 5535 5534 5532 5529
5462 5461 5461 5463 5467 5471 5474 5477 5479 5481 5482 5484 5484 5484 5485 5486 5488 5490 5491 5493 5495 5498 5501 5504 5507 5510 5512 5514 5515 5517 5518 5519 5520 5521 5523 5524 5525 5525 5525 5524 5523 5521 5519
5456 5455 5455 5456 5458 5462 5465 5467 5469 5471 5473 5473 5474 5474 5474 5476 5478 5480 5481 5482 5484 5487 5489 5492 5495 5497 5499 5501 5503 5504 5505 5505 5506 5507 5509 5510 5512 5512 5513 5513 5512 5511 5509
5451 5450 5449 5450 5452 5454 5457 5458 5460 5462 5463 5464 5464 5464 5465 5466 5468 5471 5471 5472 5473 5475 5478 5480 5482 5484 5486 5488 5489 5490 5490 5491 5492 5493 5495 5497 5498 5499 5500 5500 5500 5500 5499
5446 5445 5445 5445 5446 5447 5449 5450 5451 5453 5454 5455 5455 5456 5456 5457 5458 5460 5461 5462 5462 5464 5465 5467 5468 5470 5472 5474 5474 5474 5475 5476 5477 5478 5480 5482 5484 5485 5486 5487 5488 5488 5489
5442 5441 5440 5440 5440 5441 5441 5442 5443 5444 5445 5446 5446 5446 5447 5447 5448 5449 5450 5450 5451 5452 5453 5454 5455 5456 5457 5458 5459 5459 5460 5460 5461 5463 5464 5467 5469 5470 5472 5474 5475 5476 5477
5437 5436 5435 5435 5434 5434 5434 5434 5435 5436 5437 5437 5437 5437 5437 5437 5437 5438 5437 5437 5437 5437 5438 5439 5440 5441 5441 5442 5443 5444 5444 5445 5446 5447 5448 5450 5453 5455 5457 5459 5461 5463 5465
5432 5430 5429 5428 5427 5427 5426 5426 5427 5427 5427 5428 5427 5427 5426 5426 5426 5425 5425 5424 5423 5423 5423 5423 5424 5424 5425 5426 5426 5427 5428 5429 5430 5431 5433 5434 5436 5439 5441 5443 5445 5448 5451
5425 5423 5421 5420 5418 5418 5417 5417 5417 5417 5417 5417 5416 5416 5415 5414 5413 5412 5412 5410 5409 5407 5407 5407 5407 5407 5408 5409 5410 5411 5412 5413 5414 5416 5417 5419 5421 5423 5425 5427 5429 5432 5436
5417 5414 5412 5410 5409 5408 5407 5406 5406 5405 5405 5404 5403 5402 5401 5401 5399 5398 5397 5396 5394 5392 5391 5391 5391 5391 5391 5392 5393 5394 5395 5396 5398 5399 5401 5403 5405 5407 5409 5411 5413 5415 5419
5408 5405 5402 5400 5398 5396 5395 5394 5393 5392 5391 5390 5389 5387 5386 5385 5383 5382 5381 5380 5378 5376 5375 5374 5375 5375 5375 5376 5376 5377 5378 5379 5381 5382 5384 5386 5388 5391 5393 5395 5397 5399 5402
5400 5396 5393 5390 5387 5385 5383 5382 5380 5378 5376 5375 5373 5371 5369 5367 5365 5363 5363 5362 5361 5359 5358 5357 5357 5357 5358 5358 5359 5360 5361 5362 5363 5365 5367 5369 5371 5374 5376 5378 5380 5382 5385
5390 5386 5382 5379 5376 5373 5370 5368 5365 5363 5360 5358 5356 5353 5350 5348 5346 5343 5342 5342 5341 5340 5339 5339 5339 5339 5339 5339 5340 5341 5342 5343 5344 5346 5348 5350 5353 5355 5358 5360 5361 5364 5367
5381 5376 5372 5367 5364 5360 5356 5353 5349 5346 5342 5339 5336 5333 5331 5328 5325 5322 5321 5320 5319 5319 5318 5318 5318 5318 5319 5319 5320 5320 5321 5322 5323 5325 5327 5330 5332 5335 5337 5340 5342 5344 5346
5370 5365 5360 5355 5350 5345 5341 5336 5332 5327 5323 5319 5315 5311 5308 5305 5302 5300 5297 5296 5296 5295 5295 5295 5295 5295 5296 5297 5298 5299 5300 5301 5302 5304 5306 5309 5311 5314 5316 5319 5321 5323 5325
5357 5351 5345 5339 5333 5328 5322 5317 5311 5306 5301 5296 5292 5287 5283 5280 5277 5274 5271 5270 5269 5268 5268 5268 5269 5269 5270 5271 5273 5275 5276 5277 5279 5281 5283 5286 5289 5291 5294 5297 5299 5301 5303
5342 5334 5327 5319 5312 5305 5299 5292 5286 5280 5275 5269 5264 5259 5255 5251 5248 5245 5243 5240 5239 5239 5238 5239 5239 5240 5241 5243 5245 5248 5250 5252 5254 5256 5259 5262 5264 5267 5269 5272 5275 5276 5279
5323 5314 5305 5296 5288 5279 5272 5264 5258 5251 5245 5239 5234 5228 5223 5219 5216 5213 5210 5208 5207 5206 5206 5206 5207 5208 5210 5212 5215 5218 5221 5224 5227 5230 5234 5236 5239 5241 5244 5247 5249 5251 5253
5299 5289 5279 5270 5260 5252 5243 5235 5228 5221 5215 5208 5203 5198 5193 5189 5184 5181 5178 5176 5174 5173 5173 5173 5174 5176 5177 5181 5184 5188 5192 5196 5200 5204 5208 5211 5215 5218 5221 5223 5225 5227 5228
5277 5267 5257 5247 5237 5229 5220 5212 5205 5198 5191 5185 5179 5174 5168 5164 5159 5155 5152 5149 5147 5145 5144 5144 5145 5146 5148 5152 5156 5161 5166 5171 5176 5181 5186 5190 5194 5198 5201 5204 5206 5208 5210
5261 5251 5241 5232 5224 5215 5207 5199 5191 5184 5177 5171 5165 5159 5153 5148 5143 5138 5134 5130 5127 5125 5123 5123 5123 5124 5126 5129 5134 5139 5145 5152 5158 5164 5170 5175 5179 5183 5187 5190 5193 5196 5199
5254 5244 5235 5227 5218 5210 5201 5193 5185 5178 5171 5164 5157 5151 5145 5139 5133 5128 5123 5119 5115 5112 5110 5108 5108 5109 5110 5114 5118 5124 5131 5138 5146 5153 5159 5165 5170 5175 5179 5184 5188 5192 5196